Tracking 25709 objects as of 24-May-2022
HD Live streaming from Space Station
objects crossing your sky now

SPACEBEE-108

Track SPACEBEE-108 now!
10-day predictions


NORAD ID: 48895
Int'l Code: 2021-059S
Perigee: 520.4 km
Apogee: 533.3 km
Inclination: 97.6 °
Period: 95.0 minutes
Semi major axis: 6897 km
RCS: Unknown
Launch date: June 30, 2021
Source: United States (US)
Launch site: AIR FORCE EASTERN TEST RANGE (AFETR)
aabbcc
Your satellite tracking list
Your tracking list is empty




NASA's NSSDC Master Catalog

Two Line Element Set (TLE):
1 48895U 21059S   22143.34464111  .00014196  00000-0  75353-3 0  9994
2 48895  97.5526 273.2176 0009359 185.5048 174.6083 15.15406204 50131
Source of the keplerian elements: AFSPC